Location: Serin Observatory
(40.5200°N, 74.4500°W)
Time: 07:00:41
(UTC+00:00)

SL-8 R/B - Visible Passes

Search period start: 24 October 2014 00:00
Search period end: 03 November 2014 00:00
Orbit: 659 x 670 km, 48.4° (Epoch: 23 October)

Date Brightness Start Highest point End Pass type
(mag) Time Alt. Az. Time Alt. Az. Time Alt. Az.
24 Oct 5.5 08:40:45 25° SE 08:40:45 25° SE 08:42:48 10° SE visible
24 Oct 5.6 10:18:49 13° WSW 10:19:56 14° SW 10:22:15 10° SSW visible
25 Oct 5.5 09:11:51 20° S 09:11:51 20° S 09:13:42 10° SSE visible
26 Oct 6.0 23:53:27 10° S 23:53:52 11° SSE 23:53:52 11° SSE visible
28 Oct 5.6 00:23:20 10° SSW 00:24:54 20° SSW 00:24:54 20° SSW visible
28 Oct 5.2 23:14:01 10° S 23:17:17 18° SE 23:17:47 18° SE visible
29 Oct 6.0 00:54:34 10° WSW 00:55:51 18° WSW 00:55:51 18° WSW visible
29 Oct 4.1 23:44:06 10° SSW 23:48:37 43° SE 23:48:37 43° SE visible
30 Oct 6.7 01:26:31 10° W 01:26:40 11° W 01:26:40 11° W visible
30 Oct 5.2 22:34:37 10° S 22:38:05 20° SE 22:41:17 11° E visible
31 Oct 4.1 00:15:26 10° WSW 00:19:20 60° WSW 00:19:20 60° WSW visible
31 Oct 4.1 23:04:53 10° SW 23:09:26 47° SE 23:11:55 25° E visible
01 Nov 5.5 00:47:25 10° W 00:49:57 29° W 00:49:57 29° W visible
01 Nov 3.6 23:36:17 10° WSW 23:41:03 82° NNW 23:42:27 46° NE visible
02 Nov 6.6 01:19:44 10° WNW 01:20:29 14° WNW 01:20:29 14° WNW visible
02 Nov 4.0 22:25:39 10° SW 22:30:16 51° SE 22:34:53 10° ENE visible
